Weather History for Sivas, Turkey

Change the Weather History Date:

Sunday, September 9, 2012

  Actual Average Record
Temperature  
Mean Temperature 62 °F -  
Max Temperature 76 °F 72 °F - ()
Min Temperature 47 °F 44 °F - ()
Degree Days  
Heating Degree Days 4    
Growing Degree Days 12 (Base 50)    
Moisture  
Dew Point 44 °F    
Average Humidity 67    
Maximum Humidity 87    
Minimum Humidity 18    
Precipitation  
Precipitation 0.00 in 0.03 in - ()
Sea Level Pressure  
Sea Level Pressure 30.05 in    
Wind  
Wind Speed 9 mph ()    
Max Wind Speed 23 mph    
Max Gust Speed 21 mph    
Visibility 6.8 miles    
Events      
T = Trace of Precipitation, MM = Missing Value Source: Averaged Metar Reports

Daily Weather History Graph

Daily Weather History Graph

Search for Another Location

Airport:

Trip Planner

Search our weather history database for the weather conditions in past years. The results will help you decide how hot, cold, wet, or windy it might be!

Date:

Astronomy

Sep. 09, 2012 Rise Set
Actual Time 6:08 AM EEST 6:50 PM EEST
Civil Twilight 5:40 AM EEST 7:17 PM EEST
Nautical Twilight 5:08 AM EEST 7:50 PM EEST
Astronomical Twilight 4:35 AM EEST 8:23 PM EEST
Moon No Moon Rise 2:18 PM EEST (9/9)
Length of Visible Light 13h 37m
Length of Day
12h 42m
Last Quarter, 42% of the Moon is Illuminated
Sep 9
Last Quarter
Sep 16
New
Sep 22
First Quarter
Sep 30
Full
Oct 8
Last Quarter

Hourly Weather History & Observations

Time (EEST) Temp. Windchill Dew Point Humidity Pressure Visibility Wind Dir Wind Speed Gust Speed Precip Events Conditions
12:50 AM 48.2 °F - 44.6 °F 87% 30.06 in - North 9.2 mph - N/A   Clear
1:50 AM 46.4 °F 43.5 °F 42.8 °F 87% 30.06 in - NNW 5.8 mph - N/A   Clear
2:50 AM 46.4 °F 42.4 °F 42.8 °F 87% 30.06 in - North 8.1 mph - N/A   Clear
3:00 AM 51 °F - 43 °F 65% 29.88 in - Calm Calm - -  
3:50 AM 44.6 °F 39.7 °F 41.0 °F 87% 30.06 in - NE 9.2 mph - N/A   Clear
4:50 AM 44.6 °F 40.7 °F 41.0 °F 87% 30.06 in - North 6.9 mph - N/A   Clear
5:50 AM 48.2 °F - 44.6 °F 87% 30.06 in - NNE 9.2 mph - N/A   Clear
6:50 AM 50.0 °F - 46.4 °F 87% 30.06 in - NNE 9.2 mph - N/A   Clear
7:50 AM 53.6 °F - 46.4 °F 77% 30.06 in 6.2 mi NNE 17.3 mph - N/A   Partly Cloudy
8:50 AM 57.2 °F - 44.6 °F 63% 30.06 in 6.2 mi NNE 13.8 mph - N/A   Partly Cloudy
9:00 AM 60 °F - 44 °F 45%  in 9 mi Calm Calm - -  
9:50 AM 59.0 °F - 42.8 °F 55% 30.06 in 6.2 mi NE 10.4 mph - N/A   Scattered Clouds
10:50 AM 59.0 °F - 44.6 °F 59% 30.06 in 6.2 mi NNE 12.7 mph - N/A   Scattered Clouds
11:50 AM 60.8 °F - 42.8 °F 52% 30.06 in 6.2 mi North 10.4 mph - N/A   Scattered Clouds
12:50 PM 66.2 °F - 42.8 °F 43% 30.04 in 6.2 mi Variable 8.1 mph 20.7 mph N/A   Scattered Clouds
1:50 PM 64.4 °F - 44.6 °F 49% 30.04 in 6.2 mi NNW 19.6 mph - N/A   Scattered Clouds
2:50 PM 66.2 °F - 42.8 °F 43% 30.04 in 6.2 mi NNW 18.4 mph - N/A   Scattered Clouds
3:00 PM 73 °F - 38 °F 18%  in 9 mi Calm Calm - -   Scattered Clouds
3:50 PM 64.4 °F - 44.6 °F 49% 30.04 in 6.2 mi NNW 21.9 mph - N/A   Scattered Clouds
4:50 PM 62.6 °F - 44.6 °F 52% 30.04 in 6.2 mi NNW 21.9 mph - N/A   Scattered Clouds
5:50 PM 57.2 °F - 46.4 °F 67% 30.04 in - NNW 23.0 mph - N/A   Clear
6:50 PM 51.8 °F - 44.6 °F 76% 30.06 in - NNW 18.4 mph - N/A   Clear
7:50 PM 50.0 °F - 44.6 °F 82% 30.06 in - North 13.8 mph - N/A   Clear
8:50 PM 50.0 °F - 44.6 °F 82% 30.09 in - North 12.7 mph - N/A   Clear
9:00 PM 57 °F - 44 °F 52%  in 9 mi North 2.3 mph - -  
9:50 PM 48.2 °F - 44.6 °F 87% 30.09 in - NNW 12.7 mph - N/A   Clear
10:50 PM 48.2 °F - 42.8 °F 82% 30.09 in - North 10.4 mph - N/A   Clear
11:50 PM 48.2 °F - 42.8 °F 82% 30.09 in - North 11.5 mph - N/A   Clear